IGO848 VOMM-VAAH

Flight info

Callsign IGO848
Flight time 1h 57m
Altitude 34000
Route KAMGU2A KAMGU W20 HIA L518 MONPI N895 BODAR BODAR1A
Aircraft A21N/M-SDE2E3FGHIRWXY/LB1

Departure

Time 2026-04-26 14:02
Airport Chennai International Airport (VOMM)

Arrival

Time 2026-04-26 15:59
Airport Sardar Vallabh Patel International Airport (VAAH)
Time Latitude Longitude Altitude Speed Heading
2026-04-26 13:35 12.98475 80.16638 56 ft 0 kts 158°
2026-04-26 13:52 12.98494 80.16630 47 ft 2 kts 159°
2026-04-26 13:52 12.98514 80.16623 55 ft 4 kts 186°
2026-04-26 13:52 12.98536 80.16631 53 ft 4 kts 234°
2026-04-26 13:52 12.98547 80.16648 49 ft 0 kts 249°
2026-04-26 13:55 12.98544 80.16641 48 ft 7 kts 249°
2026-04-26 13:55 12.98525 80.16587 52 ft 17 kts 249°
2026-04-26 13:55 12.98439 80.16351 52 ft 13 kts 251°
2026-04-26 13:56 12.98401 80.16249 55 ft 17 kts 248°
2026-04-26 13:56 12.98375 80.16175 54 ft 0 kts 253°
2026-04-26 13:56 12.98369 80.16155 54 ft 7 kts 251°
2026-04-26 13:56 12.98343 80.16084 55 ft 14 kts 248°
2026-04-26 13:57 12.98298 80.15985 54 ft 16 kts 247°
2026-04-26 13:57 12.98293 80.15874 55 ft 17 kts 288°
2026-04-26 13:57 12.98330 80.15755 52 ft 18 kts 287°
2026-04-26 13:57 12.98360 80.15651 54 ft 9 kts 286°
2026-04-26 13:58 12.98363 80.15641 56 ft 3 kts 285°
2026-04-26 13:58 12.98368 80.15622 54 ft 0 kts 285°
2026-04-26 13:58 12.98368 80.15621 54 ft 1 kts 285°
2026-04-26 13:59 12.98378 80.15581 56 ft 9 kts 284°
2026-04-26 13:59 12.98383 80.15560 56 ft 0 kts 284°
2026-04-26 14:00 12.98394 80.15518 52 ft 11 kts 289°
2026-04-26 14:00 12.98439 80.15430 55 ft 11 kts 314°
2026-04-26 14:00 12.98466 80.15432 52 ft 6 kts 26°
2026-04-26 14:01 12.98482 80.15473 54 ft 0 kts 68°
2026-04-26 14:01 12.98484 80.15477 54 ft 1 kts 68°
2026-04-26 14:01 12.98491 80.15496 51 ft 5 kts 68°
2026-04-26 14:01 12.98562 80.15680 53 ft 64 kts 71°
2026-04-26 14:02 12.98809 80.16351 53 ft 133 kts 68°
2026-04-26 14:02 12.99212 80.17426 70 ft 185 kts 70°
2026-04-26 14:02 12.99692 80.18670 719 ft 190 kts 71°
2026-04-26 14:02 13.00224 80.19909 1421 ft 199 kts 54°
2026-04-26 14:03 13.01420 80.20625 2048 ft 208 kts
2026-04-26 14:03 13.02945 80.20550 2305 ft 232 kts 353°
2026-04-26 14:03 13.04600 80.20209 2516 ft 252 kts 343°
2026-04-26 14:03 13.06354 80.19659 2764 ft 274 kts 341°
2026-04-26 14:04 13.08205 80.19036 3301 ft 284 kts 342°
2026-04-26 14:04 13.10079 80.18419 4142 ft 281 kts 343°
2026-04-26 14:04 13.11931 80.17828 5050 ft 276 kts 344°
2026-04-26 14:04 13.13777 80.17254 5827 ft 278 kts 345°
2026-04-26 14:05 13.15616 80.16690 6579 ft 279 kts 345°
2026-04-26 14:05 13.17477 80.16125 7302 ft 280 kts 346°
2026-04-26 14:05 13.19354 80.15558 8004 ft 282 kts 346°
2026-04-26 14:05 13.21263 80.15106 8735 ft 281 kts 355°
2026-04-26 14:06 13.23211 80.14959 9486 ft 280 kts
2026-04-26 14:06 13.25168 80.14855 10111 ft 286 kts
2026-04-26 14:06 13.27235 80.14741 10292 ft 307 kts 359°
2026-04-26 14:06 13.29438 80.14601 10457 ft 327 kts 357°
2026-04-26 14:07 13.31732 80.14193 10833 ft 340 kts 348°
2026-04-26 14:07 13.33970 80.13446 11403 ft 346 kts 340°
2026-04-26 14:07 13.36191 80.12468 11995 ft 349 kts 339°
2026-04-26 14:07 13.38445 80.11487 12578 ft 353 kts 339°
2026-04-26 14:08 13.40724 80.10502 13146 ft 356 kts 339°
2026-04-26 14:08 13.43026 80.09508 13719 ft 359 kts 339°
2026-04-26 14:08 13.45341 80.08508 14233 ft 362 kts 339°
2026-04-26 14:08 13.47676 80.07498 14727 ft 366 kts 339°
2026-04-26 14:09 13.50005 80.06484 15204 ft 369 kts 338°
2026-04-26 14:09 13.52388 80.05445 15691 ft 372 kts 338°
2026-04-26 14:09 13.54781 80.04403 16172 ft 375 kts 338°
2026-04-26 14:09 13.57196 80.03356 16621 ft 379 kts 338°
2026-04-26 14:10 13.59637 80.02298 17079 ft 382 kts 338°
2026-04-26 14:10 13.62101 80.01235 17520 ft 385 kts 338°
2026-04-26 14:10 13.64584 80.00167 17952 ft 389 kts 338°
2026-04-26 14:10 13.67090 79.99086 18354 ft 392 kts 337°
2026-04-26 14:11 13.72146 79.96887 19094 ft 397 kts 337°
2026-04-26 14:11 13.74673 79.95784 19468 ft 400 kts 337°
2026-04-26 14:11 13.77241 79.94663 19859 ft 402 kts 337°
2026-04-26 14:12 13.79828 79.93534 20208 ft 405 kts 337°
2026-04-26 14:12 13.82435 79.92397 20563 ft 408 kts 337°
2026-04-26 14:12 13.85055 79.91254 20931 ft 410 kts 337°
2026-04-26 14:12 13.87691 79.90105 21295 ft 413 kts 337°
2026-04-26 14:13 13.92122 79.88172 21872 ft 418 kts 337°
2026-04-26 14:13 13.94807 79.87001 22226 ft 420 kts 336°
2026-04-26 14:13 13.97510 79.85821 22568 ft 423 kts 336°
2026-04-26 14:14 14.00232 79.84634 22921 ft 425 kts 336°
2026-04-26 14:14 14.02966 79.83441 23261 ft 427 kts 336°
2026-04-26 14:14 14.05715 79.82241 23570 ft 429 kts 336°
2026-04-26 14:14 14.08436 79.81054 23897 ft 430 kts 336°
2026-04-26 14:15 14.11197 79.79850 24193 ft 431 kts 336°
2026-04-26 14:15 14.13972 79.78639 24500 ft 433 kts 336°
2026-04-26 14:15 14.16754 79.77425 24778 ft 434 kts 335°
2026-04-26 14:15 14.19551 79.76204 25080 ft 435 kts 335°
2026-04-26 14:16 14.22347 79.74983 25361 ft 437 kts 335°
2026-04-26 14:16 14.25150 79.73759 25626 ft 439 kts 335°
2026-04-26 14:16 14.27966 79.72527 25895 ft 440 kts 335°
2026-04-26 14:16 14.30790 79.71292 26174 ft 442 kts 335°
2026-04-26 14:17 14.33623 79.70053 26416 ft 443 kts 335°
2026-04-26 14:17 14.36464 79.68811 26669 ft 445 kts 335°
2026-04-26 14:17 14.39288 79.67574 26914 ft 446 kts 335°
2026-04-26 14:17 14.42149 79.66320 27145 ft 448 kts 335°
2026-04-26 14:18 14.45033 79.65057 27386 ft 449 kts 335°
2026-04-26 14:18 14.47913 79.63795 27623 ft 450 kts 335°
2026-04-26 14:18 14.50800 79.62530 27847 ft 452 kts 335°
2026-04-26 14:18 14.53708 79.61254 28057 ft 454 kts 335°
2026-04-26 14:19 14.56621 79.59976 28272 ft 455 kts 335°
2026-04-26 14:19 14.59541 79.58695 28496 ft 457 kts 335°
2026-04-26 14:19 14.62471 79.57409 28694 ft 458 kts 334°
2026-04-26 14:19 14.65408 79.56120 28901 ft 460 kts 334°
2026-04-26 14:20 14.68361 79.54823 29080 ft 461 kts 334°
2026-04-26 14:20 14.71317 79.53525 29272 ft 463 kts 334°
2026-04-26 14:20 14.74289 79.52220 29466 ft 464 kts 334°
2026-04-26 14:20 14.77266 79.50912 29655 ft 466 kts 334°
2026-04-26 14:21 14.80226 79.49611 29800 ft 468 kts 334°
2026-04-26 14:21 14.86217 79.46977 29781 ft 467 kts 334°
2026-04-26 14:22 14.92206 79.44342 29785 ft 468 kts 334°
2026-04-26 14:22 14.98213 79.41697 29790 ft 468 kts 334°
2026-04-26 14:23 15.04202 79.39020 29792 ft 469 kts 333°
2026-04-26 14:23 15.10154 79.36346 29793 ft 469 kts 333°
2026-04-26 14:24 15.16159 79.33651 29794 ft 469 kts 333°
2026-04-26 14:24 15.22145 79.30966 29796 ft 469 kts 333°
2026-04-26 14:25 15.28133 79.28278 29802 ft 469 kts 333°
2026-04-26 14:25 15.34078 79.25608 29809 ft 469 kts 333°
2026-04-26 14:26 15.40071 79.22915 29811 ft 468 kts 333°
2026-04-26 14:26 15.46066 79.20219 29814 ft 469 kts 333°
2026-04-26 14:27 15.52017 79.17555 29817 ft 468 kts 333°
2026-04-26 14:27 15.58008 79.14885 29818 ft 468 kts 333°
2026-04-26 14:28 15.63995 79.12214 29824 ft 468 kts 333°
2026-04-26 14:28 15.69986 79.09536 29828 ft 468 kts 333°
2026-04-26 14:29 15.75972 79.06859 29827 ft 468 kts 333°
2026-04-26 14:29 15.81961 79.04180 29834 ft 468 kts 333°
2026-04-26 14:30 15.87917 79.01512 29835 ft 468 kts 333°
2026-04-26 14:30 15.93904 78.98829 30011 ft 469 kts 333°
2026-04-26 14:30 15.96897 78.97487 30237 ft 469 kts 333°
2026-04-26 14:31 15.99910 78.96135 30432 ft 471 kts 334°
2026-04-26 14:31 16.02921 78.94785 30652 ft 471 kts 334°
2026-04-26 14:31 16.05936 78.93432 30857 ft 472 kts 334°
2026-04-26 14:31 16.08964 78.92073 31103 ft 472 kts 333°
2026-04-26 14:32 16.11945 78.90735 31379 ft 472 kts 334°
2026-04-26 14:32 16.14953 78.89385 31661 ft 471 kts 334°
2026-04-26 14:32 16.17954 78.88036 31826 ft 470 kts 334°
2026-04-26 14:33 16.23943 78.85340 31852 ft 469 kts 333°
2026-04-26 14:33 16.29925 78.82637 31852 ft 469 kts 333°
2026-04-26 14:34 16.35923 78.79934 31849 ft 469 kts 334°
2026-04-26 14:34 16.41917 78.77240 31849 ft 470 kts 334°
2026-04-26 14:35 16.47918 78.74539 31846 ft 469 kts 334°
2026-04-26 14:35 16.53911 78.71840 31843 ft 469 kts 334°
2026-04-26 14:36 16.59908 78.69136 31846 ft 470 kts 334°
2026-04-26 14:36 16.65904 78.66433 31847 ft 470 kts 334°
2026-04-26 14:37 16.71905 78.63727 31850 ft 470 kts 334°
2026-04-26 14:37 16.77908 78.61016 31851 ft 470 kts 333°
2026-04-26 14:38 16.83908 78.58301 31859 ft 470 kts 333°
2026-04-26 14:38 16.89879 78.55604 31867 ft 471 kts 333°
2026-04-26 14:39 16.95890 78.52885 31885 ft 471 kts 333°
2026-04-26 14:39 17.00645 78.50728 31898 ft 471 kts 333°
2026-04-26 14:40 17.06655 78.47994 31908 ft 471 kts 333°
2026-04-26 14:40 17.12670 78.45263 31920 ft 471 kts 333°
2026-04-26 14:41 17.18685 78.42532 31923 ft 471 kts 333°
2026-04-26 14:41 17.24645 78.39711 31926 ft 469 kts 329°
2026-04-26 14:42 17.30464 78.36628 31925 ft 468 kts 329°
2026-04-26 14:42 17.36281 78.33563 31896 ft 468 kts 329°
2026-04-26 14:43 17.42088 78.30489 31897 ft 467 kts 329°
2026-04-26 14:43 17.47894 78.27422 31893 ft 466 kts 329°
2026-04-26 14:44 17.53684 78.24363 31890 ft 465 kts 329°
2026-04-26 14:44 17.59463 78.21309 31881 ft 464 kts 329°
2026-04-26 14:45 17.65230 78.18263 31872 ft 464 kts 329°
2026-04-26 14:45 17.70952 78.15234 31860 ft 463 kts 329°
2026-04-26 14:46 17.76702 78.12189 31849 ft 462 kts 329°
2026-04-26 14:46 17.82445 78.09147 31843 ft 462 kts 329°
2026-04-26 14:47 17.88177 78.06106 31837 ft 462 kts 329°
2026-04-26 14:47 17.93906 78.03062 31829 ft 461 kts 329°
2026-04-26 14:48 17.99637 78.00015 31830 ft 462 kts 329°
2026-04-26 14:48 18.05369 77.96968 31826 ft 462 kts 328°
2026-04-26 14:49 18.11107 77.93915 31824 ft 462 kts 328°
2026-04-26 14:49 18.16846 77.90853 31826 ft 463 kts 328°
2026-04-26 14:50 18.22593 77.87796 31825 ft 463 kts 328°
2026-04-26 14:50 18.28346 77.84729 31825 ft 463 kts 328°
2026-04-26 14:51 18.34094 77.81662 31826 ft 464 kts 328°
2026-04-26 14:51 18.39844 77.78591 31822 ft 464 kts 328°
2026-04-26 14:52 18.45556 77.75537 31822 ft 463 kts 328°
2026-04-26 14:52 18.51320 77.72455 31821 ft 463 kts 328°
2026-04-26 14:53 18.57183 77.69567 31814 ft 465 kts 331°
2026-04-26 14:53 18.63090 77.66855 31807 ft 465 kts 331°
2026-04-26 14:54 18.68996 77.64082 31802 ft 464 kts 330°
2026-04-26 14:54 18.74886 77.61285 31804 ft 464 kts 330°
2026-04-26 14:55 18.80778 77.58480 31803 ft 463 kts 330°
2026-04-26 14:55 18.86619 77.55699 31801 ft 463 kts 330°
2026-04-26 14:56 18.92501 77.52899 31792 ft 462 kts 330°
2026-04-26 14:56 18.98326 77.50126 31786 ft 462 kts 329°
2026-04-26 14:57 19.04178 77.47329 31781 ft 461 kts 329°
2026-04-26 14:57 19.10026 77.44535 31778 ft 461 kts 329°
2026-04-26 14:58 19.15867 77.41749 31770 ft 460 kts 329°
2026-04-26 14:58 19.21721 77.38966 31770 ft 460 kts 329°
2026-04-26 14:59 19.27552 77.36177 31768 ft 460 kts 330°
2026-04-26 14:59 19.33359 77.33415 31769 ft 460 kts 329°
2026-04-26 15:00 19.39201 77.30622 31777 ft 460 kts 329°
2026-04-26 15:00 19.44059 77.28293 31783 ft 460 kts 329°
2026-04-26 15:01 19.49911 77.25485 31794 ft 461 kts 329°
2026-04-26 15:01 19.56710 77.22219 31806 ft 462 kts 329°
2026-04-26 15:02 19.61616 77.19863 31810 ft 462 kts 329°
2026-04-26 15:02 19.67475 77.17048 31818 ft 462 kts 329°
2026-04-26 15:03 19.73341 77.14227 31823 ft 463 kts 329°
2026-04-26 15:03 19.79173 77.11421 31827 ft 463 kts 329°
2026-04-26 15:04 19.85033 77.08599 31828 ft 463 kts 329°
2026-04-26 15:04 19.90890 77.05776 31831 ft 462 kts 329°
2026-04-26 15:05 19.96752 77.02948 31834 ft 462 kts 329°
2026-04-26 15:05 20.02604 77.00122 31834 ft 461 kts 329°
2026-04-26 15:06 20.08438 76.97303 31831 ft 460 kts 329°
2026-04-26 15:06 20.14273 76.94481 31824 ft 459 kts 329°
2026-04-26 15:07 20.22956 76.90278 31812 ft 458 kts 328°
2026-04-26 15:07 20.28755 76.87468 31819 ft 458 kts 328°
2026-04-26 15:08 20.34548 76.84658 31807 ft 457 kts 328°
2026-04-26 15:08 20.40327 76.81853 31807 ft 456 kts 328°
2026-04-26 15:09 20.46111 76.79043 31803 ft 456 kts 328°
2026-04-26 15:09 20.51882 76.76238 31796 ft 456 kts 328°
2026-04-26 15:10 20.56671 76.73908 31796 ft 456 kts 328°
2026-04-26 15:10 20.63412 76.70625 31795 ft 456 kts 328°
2026-04-26 15:11 20.69146 76.67830 31792 ft 456 kts 328°
2026-04-26 15:11 20.74918 76.65015 31792 ft 456 kts 328°
2026-04-26 15:12 20.80696 76.62194 31798 ft 456 kts 328°
2026-04-26 15:12 20.86476 76.59370 31799 ft 457 kts 328°
2026-04-26 15:13 20.92259 76.56542 31804 ft 457 kts 328°
2026-04-26 15:13 20.98049 76.53708 31808 ft 457 kts 328°
2026-04-26 15:14 21.03804 76.50889 31812 ft 457 kts 328°
2026-04-26 15:14 21.09585 76.48055 31824 ft 457 kts 328°
2026-04-26 15:15 21.15373 76.45215 31827 ft 457 kts 328°
2026-04-26 15:15 21.21150 76.42378 31823 ft 456 kts 328°
2026-04-26 15:16 21.26922 76.39541 31823 ft 456 kts 328°
2026-04-26 15:16 21.32656 76.36719 31822 ft 456 kts 328°
2026-04-26 15:17 21.37459 76.34354 31818 ft 455 kts 328°
2026-04-26 15:17 21.44162 76.31050 31816 ft 455 kts 328°
2026-04-26 15:18 21.49922 76.28209 31816 ft 455 kts 328°
2026-04-26 15:18 21.55670 76.25370 31818 ft 455 kts 328°
2026-04-26 15:19 21.61422 76.22527 31811 ft 455 kts 329°
2026-04-26 15:19 21.67164 76.19686 31813 ft 455 kts 329°
2026-04-26 15:20 21.72912 76.16840 31815 ft 455 kts 329°
2026-04-26 15:20 21.78673 76.13985 31809 ft 455 kts 329°
2026-04-26 15:21 21.84399 76.11145 31810 ft 455 kts 329°
2026-04-26 15:21 21.90164 76.08284 31804 ft 456 kts 329°
2026-04-26 15:22 21.95933 76.05418 31805 ft 457 kts 330°
2026-04-26 15:22 22.01688 76.02511 31803 ft 454 kts 325°
2026-04-26 15:23 22.04275 76.00611 31799 ft 447 kts 314°
2026-04-26 15:23 22.06439 75.98251 31798 ft 441 kts 304°
2026-04-26 15:23 22.09320 75.92529 31795 ft 433 kts 285°
2026-04-26 15:24 22.11193 75.86346 31799 ft 434 kts 285°
2026-04-26 15:24 22.13091 75.80150 31805 ft 436 kts 285°
2026-04-26 15:25 22.14676 75.74977 31810 ft 437 kts 285°
2026-04-26 15:25 22.16899 75.67713 31813 ft 440 kts 285°
2026-04-26 15:26 22.18816 75.61434 31823 ft 442 kts 286°
2026-04-26 15:26 22.20738 75.55126 31827 ft 444 kts 286°
2026-04-26 15:27 22.22666 75.48788 31832 ft 445 kts 286°
2026-04-26 15:27 22.24597 75.42429 31834 ft 447 kts 286°
2026-04-26 15:28 22.26532 75.36040 31835 ft 448 kts 286°
2026-04-26 15:28 22.28465 75.29630 31836 ft 449 kts 285°
2026-04-26 15:29 22.30387 75.23204 31832 ft 450 kts 286°
2026-04-26 15:30 22.34256 75.10320 31829 ft 451 kts 286°
2026-04-26 15:30 22.36199 75.03865 31824 ft 452 kts 286°
2026-04-26 15:31 22.39096 74.94153 31811 ft 453 kts 286°
2026-04-26 15:32 22.41688 74.85523 31805 ft 454 kts 286°
2026-04-26 15:32 22.43952 74.77975 31799 ft 455 kts 287°
2026-04-26 15:33 22.45909 74.71441 31794 ft 456 kts 287°
2026-04-26 15:33 22.47861 74.64912 31806 ft 457 kts 287°
2026-04-26 15:34 22.49808 74.58371 31795 ft 458 kts 287°
2026-04-26 15:34 22.51760 74.51804 31810 ft 459 kts 287°
2026-04-26 15:35 22.53703 74.45260 31797 ft 460 kts 287°
2026-04-26 15:35 22.55655 74.38669 31794 ft 461 kts 287°
2026-04-26 15:36 22.57614 74.32048 31794 ft 462 kts 287°
2026-04-26 15:36 22.59578 74.25405 31807 ft 463 kts 287°
2026-04-26 15:37 22.61778 74.18867 31795 ft 463 kts 292°
2026-04-26 15:37 22.64231 74.12458 31794 ft 464 kts 292°
2026-04-26 15:38 22.66692 74.06010 31247 ft 462 kts 292°
2026-04-26 15:38 22.67929 74.02777 30326 ft 468 kts 292°
2026-04-26 15:38 22.69182 73.99489 29056 ft 477 kts 292°
2026-04-26 15:39 22.70449 73.96152 28073 ft 478 kts 292°
2026-04-26 15:39 22.71707 73.92833 27370 ft 473 kts 292°
2026-04-26 15:39 22.72924 73.89599 26677 ft 467 kts 292°
2026-04-26 15:39 22.73751 73.87399 26196 ft 464 kts 292°
2026-04-26 15:40 22.75364 73.83145 25302 ft 458 kts 292°
2026-04-26 15:40 22.76567 73.79968 24623 ft 454 kts 292°
2026-04-26 15:40 22.77759 73.76815 23975 ft 450 kts 292°
2026-04-26 15:40 22.78942 73.73687 23341 ft 446 kts 292°
2026-04-26 15:41 22.80112 73.70592 22604 ft 441 kts 292°
2026-04-26 15:41 22.81266 73.67533 21909 ft 437 kts 293°
2026-04-26 15:41 22.82417 73.64512 21220 ft 432 kts 293°
2026-04-26 15:41 22.83560 73.61517 20556 ft 428 kts 293°
2026-04-26 15:42 22.84686 73.58545 19907 ft 423 kts 292°
2026-04-26 15:42 22.85791 73.55607 19272 ft 419 kts 292°
2026-04-26 15:42 22.86881 73.52693 18641 ft 415 kts 292°
2026-04-26 15:42 22.87965 73.49794 18020 ft 411 kts 292°
2026-04-26 15:43 22.89022 73.46962 17314 ft 408 kts 292°
2026-04-26 15:43 22.90094 73.44091 16620 ft 404 kts 292°
2026-04-26 15:43 22.92173 73.38521 15289 ft 397 kts 292°
2026-04-26 15:44 22.93205 73.35756 14670 ft 394 kts 292°
2026-04-26 15:44 22.95245 73.30294 13665 ft 381 kts 292°
2026-04-26 15:44 22.96220 73.27681 13509 ft 365 kts 292°
2026-04-26 15:45 22.98049 73.22777 13215 ft 336 kts 291°
2026-04-26 15:45 22.98910 73.20471 13086 ft 322 kts 291°
2026-04-26 15:46 23.00515 73.16054 12317 ft 313 kts 287°
2026-04-26 15:46 23.01150 73.13801 11909 ft 310 kts 287°
2026-04-26 15:46 23.01788 73.11576 11518 ft 307 kts 287°
2026-04-26 15:46 23.02003 73.10831 11386 ft 305 kts 287°
2026-04-26 15:47 23.03050 73.07208 10745 ft 300 kts 287°
2026-04-26 15:47 23.04279 73.02944 9777 ft 292 kts 286°
2026-04-26 15:47 23.04881 73.00852 9229 ft 289 kts 286°
2026-04-26 15:48 23.05476 72.98777 8641 ft 287 kts 286°
2026-04-26 15:48 23.06067 72.96717 8084 ft 285 kts 286°
2026-04-26 15:48 23.06655 72.94665 7529 ft 283 kts 287°
2026-04-26 15:48 23.07238 72.92632 6994 ft 281 kts 287°
2026-04-26 15:49 23.07779 72.90741 6501 ft 280 kts 287°
2026-04-26 15:49 23.08354 72.88734 5954 ft 277 kts 287°
2026-04-26 15:49 23.08923 72.86742 5458 ft 273 kts 287°
2026-04-26 15:49 23.09478 72.84799 5290 ft 269 kts 287°
2026-04-26 15:50 23.09846 72.83513 5250 ft 268 kts 287°
2026-04-26 15:50 23.10391 72.81575 5246 ft 269 kts 283°
2026-04-26 15:50 23.10423 72.79562 5248 ft 270 kts 256°
2026-04-26 15:50 23.09586 72.77731 5179 ft 273 kts 232°
2026-04-26 15:51 23.08241 72.76270 4929 ft 274 kts 223°
2026-04-26 15:51 23.06775 72.74940 4567 ft 274 kts 221°
2026-04-26 15:51 23.05325 72.73594 4157 ft 274 kts 224°
2026-04-26 15:51 23.03929 72.72210 3934 ft 273 kts 224°
2026-04-26 15:52 23.02546 72.70782 3730 ft 275 kts 225°
2026-04-26 15:52 23.01181 72.69335 3556 ft 273 kts 226°
2026-04-26 15:52 22.99844 72.67895 3366 ft 267 kts 226°
2026-04-26 15:52 22.98979 72.66957 3234 ft 262 kts 227°
2026-04-26 15:53 22.97315 72.65143 2989 ft 251 kts 227°
2026-04-26 15:53 22.96097 72.63806 2801 ft 248 kts 227°
2026-04-26 15:53 22.94874 72.62464 2609 ft 250 kts 227°
2026-04-26 15:53 22.93654 72.61146 2416 ft 246 kts 226°
2026-04-26 15:54 22.92435 72.59829 2239 ft 248 kts 227°
2026-04-26 15:54 22.91214 72.58511 2052 ft 246 kts 226°
2026-04-26 15:54 22.90000 72.57218 1997 ft 244 kts 226°
2026-04-26 15:54 22.89041 72.55729 2001 ft 241 kts 253°
2026-04-26 15:55 22.88914 72.53948 2000 ft 238 kts 284°
2026-04-26 15:55 22.89998 72.52046 2001 ft 238 kts 320°
2026-04-26 15:55 22.91337 72.50976 1997 ft 238 kts 325°
2026-04-26 15:55 22.92765 72.50133 1996 ft 239 kts 345°
2026-04-26 15:56 22.94428 72.50094 2002 ft 244 kts 12°
2026-04-26 15:56 22.95961 72.50896 1997 ft 246 kts 40°
2026-04-26 15:56 22.97129 72.52168 1993 ft 230 kts 44°
2026-04-26 15:56 22.98238 72.53383 2005 ft 227 kts 43°
2026-04-26 15:57 22.99367 72.54591 2003 ft 227 kts 42°
2026-04-26 15:57 23.00494 72.55780 1995 ft 226 kts 42°
2026-04-26 15:57 23.01615 72.56962 1860 ft 224 kts 43°
2026-04-26 15:57 23.02347 72.57742 1721 ft 213 kts 43°
2026-04-26 15:58 23.03684 72.59166 1284 ft 192 kts 43°
2026-04-26 15:58 23.04597 72.60131 990 ft 176 kts 43°
2026-04-26 15:58 23.05449 72.61023 714 ft 164 kts 43°
2026-04-26 15:58 23.06277 72.61888 387 ft 166 kts 45°
2026-04-26 15:59 23.07078 72.62760 201 ft 154 kts 46°
2026-04-26 15:59 23.07672 72.63388 205 ft 65 kts 45°
2026-04-26 15:59 23.07784 72.63505 203 ft 11 kts 37°
2026-04-26 15:59 23.07838 72.63477 199 ft 11 kts 310°
2026-04-26 16:00 23.07891 72.63400 198 ft 15 kts 302°
2026-04-26 16:00 23.07896 72.63367 191 ft 7 kts 253°
2026-04-26 16:00 23.07843 72.63315 191 ft 14 kts 221°
2026-04-26 16:00 23.07757 72.63229 199 ft 19 kts 224°
2026-04-26 16:01 23.07660 72.63129 205 ft 20 kts 223°
2026-04-26 16:01 23.07553 72.63018 196 ft 23 kts 224°
2026-04-26 16:01 23.07460 72.62891 197 ft 20 kts 257°
2026-04-26 16:01 23.07497 72.62821 195 ft 11 kts 312°
2026-04-26 16:02 23.07538 72.62746 193 ft 12 kts 279°
2026-04-26 16:02 23.07535 72.62719 192 ft 2 kts 251°
2026-04-26 16:02 23.07500 72.62678 189 ft 9 kts 213°
2026-04-26 16:02 23.07455 72.62648 191 ft 13 kts 213°
2026-04-26 16:03 23.07350 72.62541 189 ft 12 kts 225°
2026-04-26 16:03 23.07322 72.62509 191 ft 0 kts 232°
2026-04-26 16:03 23.07328 72.62489 193 ft 6 kts 302°
2026-04-26 16:03 23.07362 72.62457 186 ft 2 kts 317°
2026-04-26 16:04 23.07365 72.62454 186 ft 0 kts 317°